Погода в Дербенте

Погода в Дербенте : погода сейчас, прогноз погоды и архив. Всё, что Вы хотите узнать о погоде в Дербенте!

Поиск расширенной информации на нашем сайте:

Другие новости

Новости СМИ2

Главная страница сайта

Новости сайта

02.10.2013

Напоминаем, что на нашем новом сайте вы можете получить высокодетализированные прогнозы погоды по пунктам России, СНГ и мира (включающие важные для авиации метеовеличины, такие как направление и скорость ветра, видимость, явления погоды, количество и форма облачности, нижняя и верхняя граница облачности), а также ознакомиться с разнообразными материалами по авиационной метеорологии и подборкой полезных ссылок на эту тему.

Сайт Метеоцентр.Азия посвящён разработке технологий оптимизации авиаметеорологического обслуживания, включая проектирование и перспективное создание нескольких автоматизированных авиаметеорологических систем:
- система выпуска высокодетальных прогностических карт явлений погоды для нижнего воздушного пространства по России и ближнему зарубежью;
- система верификации прогнозов TAF (выпускаемых синоптиками официальных АМСГ РФ и ближнего зарубежья) и AUTOTAF (выпускаемых сайтом Метеоцентр.Азия) - выявление ошибок, онлайн-сопоставление с фактической погодой METAR, автоматическое внесение коррективов в прогнозы при резком отклонении фактической погоды от прогноза, подсчёт оправдываемости прогнозов по элементам и в целом;
- система обработки, анализа и отображения авиаметеорологической информации для применения провайдерами метеорологической информации.

Рекомендуем: Смотрите описание зеркало с подсветкой на сайте.

Погода в Дербенте - сегодня

Время (UTC), дата Ветер
(°,м/с) 
Видим.   Явления Облачность Т
(°С)
Тd
(°С)
f(%) Тe
(°С)
Pmin
(гПа)
dP
(гПа)
Po
(мм)
O2
(г/м3)
Тmin Tmax R s Состояние
почвы
06 24.02.17 310 (СЗ) 6-12{12}  20000 м    8/4 600 м средняя 
[Sc|Ac trans]
+10.3 -0.4 47 +9  1017  6.1  764  297           
09 24.02.17 360 (С) 3{12}  20000 м    4/0 средняя 
[Ac trans]
+12.3 +3.8 56 +12  1019.2  2.3  766  295           
12 24.02.17 150 (ЮВ) 20000 м    ясно 
+9 +3.7 69 +8  1018.8  -0.4  766  298           
15 24.02.17 150 (ЮВ) 10 км    9/0 средняя, верхняя 
[Ac trans|Ci fib]
+9.2 +3.2 66 +9  1019.8  767  298    +12.4       
18 24.02.17 150 (ЮВ) 10 км    ясно 
+8 +3.4 73 +7  1019.6  -0.2  766  300           
21 24.02.17 160 (Ю) 10 км    ясно 
+6.4 +1.6 71 +5  1020.1  0.5  767  302           
00 25.02.17 тихо ()   10 км    ясно 
+3.9 +1.3 83 +4  1018.8  -1.2  766  304           
03 25.02.17 200 (Ю) 10 км    ясно 
+4.8 +1.1 77 +6  1019.1  0.3  766  303  +3.5         
06 25.02.17 100 (В) 20000 м    ясно 
+6.8 +2.2 72 +8  1018.8  -0.4  766  301           
09 25.02.17 150 (ЮВ) 20000 м    ясно 
+9.6 +5 73 +9  1017.8  -1  765  297           
12 25.02.17 130 (ЮВ) 20000 м    ясно 
+9.2 +5.7 79 +9  1015.6  -2.2  763  297           
15 25.02.17 170 (Ю) 10 км    ясно 
+11.2 +5.1 66 +11  1010.2  -0.3  740  286    +20       
18 25.02.17 160 (Ю) 4000 м  дымка  ясно 
+5.1 +4.1 93 +6  1011.5  -1.9  760  300           
21 25.02.17 тихо ()   4000 м  дымка  ясно 
+4 +2.9 93 +4  1008.2  -3.3  758  301           
00 26.02.17 360 (С) 4000 м  дымка  ясно 
+3.3 +2.1 92 +4  1007.1  -1.1  757  301           
03 26.02.17 340 (С) 10 км    ясно 
+9.3 +1.5 58 +9  1010.8  3.6  760  296  +3.3         
06 26.02.17 340 (С) 7-13{15}  20000 м    4/0 верхняя 
[Ci fib]
+10 +4.2 67 +8  1016.6  5.8  764  296           
09 26.02.17 340 (С) 6-13{17}  20000 м    10/10 600 м 
[Sc]
+6.1 +0.5 67 +4  1021.8  5.2  768  303           
12 26.02.17 340 (С) 6-13{17}  20000 м    10/10 600 м 
[Sc]
+4.7 -2 62 +2  1025.8  771  306           
15 26.02.17 330 (СЗ) 3{14}  10 км    10/10 600 м 
[Sc]
+4.5 -1.3 66 +3  1028.4  2.5  773  307    +11.1       
18 26.02.17 тихо ()   10 км    9/9 600 м 
[Sc]
+4.3 -3 59 +4  1030  1.6  774  307           
21 26.02.17 170 (Ю) 10 км    ясно 
+3.1 -3.6 61 +3  1029.3  -0.6  774  309           
00 27.02.17 170 (Ю) 10 км    ясно 
+0.8 -4.5 68 1028.7  -0.5  773  311           
03 27.02.17 180 (Ю) 10 км    ясно 
+2.7 -12.5 32 +2  1029  0.3  773  310  +0.7         
06 27.02.17 160 (Ю) 20000 м    9/4 600 м средняя, верхняя 
[Sc|Ac trans|Ci sp]
+5 -7.8 39 +4  1028.9  0.1  773  307           
Время (UTC), дата Ветер
(°,м/с) 
Видим.   Явления Облачность Т
(°С)
Тd
(°С)
f(%) Тe
(°С)
Pmin
(гПа)
dP
(гПа)
Po
(мм)
O2
(г/м3)
Тmin Tmax R s Состояние
почвы

Для получения пояснительной информации подведите курсор к названию столбца.

ПОГОДА в Дербенте - архив

Всё, что Вы хотите узнать о погоде в Дербенте - удобно и подробно!

Выберите нужную дату (начиная с 1 января 2015* года) и нажмите кнопку "Найти".
Будут отображены архивные сводки погоды по пункту Дербент, начиная с указанной даты.


Отображать данные в формате CSV (для использования в таблицах Excel)


Внимание! Наш архив погоды предназначен исключительно для личного некоммерческого использования в познавательных целях. Если Вам необходимы официальные справки о состоянии погоды (для производственных, юридических, коммерческих и т.п. целей), обращайтесь в органы Росгидромета.

*Примечание: данная дата относится к архиву по метеостанциям СССР (Россия, СНГ, Балтия).
Архив по метеостанциям Зарубежной Европы и Азии (кроме Китая) хранится 10 дней, по другим регионам земного шара (Китай, Африка, Америка, Австралия, Океания) - 1 день.

Дербент - район местоположения метеостанции


Название, широта, долгота, высота метеостанции:
Дербент 42.1°ш. 48.3°д. -19 м над ур. моря [Российская Федерация]

Дополнительная информация

В oтличие oт бoльшинства пoгoдных сайтoв мы публикуем пoдрoбную метеoинфoрмацию в детальнoм прoфессиoнальнoм фoрмате.

Характеристики температуры и влажнoсти вoздуха измеряются на высoте 2 м в тени вдали oт зданий и деревьев.
Скoрoсть ветра измеряется на высoте 10 м (на урoвне рoста челoвека скoрoсть ветра ниже в 1.5-2 раза). Если метеoстанция нахoдится в гoрoде или в лесу, тo скoрoсть ветра занижена на 2-4 м/с пo сравнению с oткрытым местoм. Скoрoсть ветра над акватoриями крупных рек и oзёр, а также на вершинах хoлмoв на 2-5 м/с выше, чем в oбычных услoвиях.
Атмoсфернoе давление в разных тoчках местнoсти мoжет значительнo oтличаться oт давления на метеoстанции, в зависимoсти oт услoвий рельефа (при пoдъёме на 10 м давление пoнижается примернo на 1 мм рт.ст.).